F3825 Weather Reports


Display with metric or nautical units.
time (UTC)temp
F
wind
direction
speed
MPH
gust
MPH
rain 1hr
in
rain 24hr
in
rain mn
in
humidity
%
barometer
mb
20260504050238 64 45 0.0 4.0 0.00 0.00 0.00 69 1014.3
20260504045258 64 9 0.0 3.0 0.00 0.00 0.00 68 1014.3
20260504043142 65 328 0.0 5.0 0.00 0.00 0.00 67 1014.5
20260504042155 65 351 0.0 6.0 0.00 0.00 0.00 66 1014.6
20260504041127 66 315 0.0 6.0 0.00 0.00 0.00 65 1014.7
20260504040123 66 347 0.0 5.0 0.00 0.00 0.00 63 1014.7
20260504035128 66 42 0.0 5.0 0.00 0.00 0.00 62 1014.7
20260504033037 64 338 0.0 0.0 0.00 0.00 0.00 63 1014.4
20260504032022 64 349 0.0 0.0 0.00 0.00 0.00 64 1014.5
20260504030949 65 349 0.0 0.0 0.00 0.00 0.00 63 1014.5
20260504025947 65 349 0.0 0.0 0.00 0.00 0.00 63 1014.6
20260504024930 65 349 0.0 0.0 0.00 0.00 0.00 62 1014.6
20260504023922 65 349 0.0 0.0 0.00 0.00 0.00 62 1014.5
20260504022850 65 349 0.0 0.0 0.00 0.00 0.00 62 1014.5
20260504021824 66 349 0.0 0.0 0.00 0.00 0.00 61 1014.6
20260504020844 67 349 0.0 0.0 0.00 0.00 0.00 59 1014.4
20260504015856 68 349 0.0 0.0 0.00 0.00 0.00 57 1014.3
20260504014909 68 349 0.0 0.0 0.00 0.00 0.00 55 1014.0
20260504012800 70 349 0.0 0.0 0.00 0.00 0.00 54 1013.9
20260504011732 71 349 0.0 0.0 0.00 0.00 0.00 53 1014.0
20260504005528 73 348 0.0 1.0 0.00 0.00 0.00 47 1013.8
20260504004546 74 333 0.0 2.0 0.00 0.00 0.00 45 1013.8
20260504003531 75 340 0.0 1.0 0.00 0.00 0.00 45 1013.8
20260504002543 75 11 0.0 1.0 0.00 0.00 0.00 46 1014.0
20260504001533 75 10 0.0 0.0 0.00 0.00 0.00 46 1014.1
20260504000505 75 351 0.0 1.0 0.00 0.00 0.00 44 1014.3
20260503235507 77 347 0.0 4.0 0.00 0.00 0.00 41 1014.5
20260503233349 76 14 0.0 9.0 0.00 0.00 0.00 41 1014.6
20260503232319 76 24 0.0 4.0 0.00 0.00 0.00 43 1014.6
20260503231250 77 342 0.0 10.0 0.00 0.00 0.00 41 1014.5
20260503230245 78 289 1.0 10.0 0.00 0.00 0.00 38 1014.5
20260503224121 79 26 2.0 10.0 0.00 0.00 0.00 37 1014.8
20260503215726 79 19 2.0 10.0 0.00 0.00 0.00 38 1015.3
20260503213627 79 16 2.0 10.0 0.00 0.00 0.00 39 1015.8
20260503212552 78 24 2.0 10.0 0.00 0.00 0.00 39 1015.7
20260503211615 78 30 2.0 11.0 0.00 0.00 0.00 40 1015.9
20260503204307 80 342 1.0 8.0 0.00 0.00 0.00 35 1016.5
20260503203304 80 11 1.0 4.0 0.00 0.00 0.00 37 1016.7
20260503202259 79 24 0.0 10.0 0.00 0.00 0.00 42 1017.0
20260503200113 80 311 1.0 9.0 0.00 0.00 0.00 38 1017.3
20260503195110 80 222 1.0 10.0 0.00 0.00 0.00 40 1017.5
20260503194048 80 17 1.0 10.0 0.00 0.00 0.00 39 1017.6
20260503193109 79 312 1.0 10.0 0.00 0.00 0.00 40 1017.7
20260503190940 79 294 1.0 9.0 0.00 0.00 0.00 37 1018.0
20260503185959 79 43 1.0 6.0 0.00 0.00 0.00 39 1018.1
20260503185006 78 300 1.0 6.0 0.00 0.00 0.00 36 1018.4
20260503183956 78 30 1.0 9.0 0.00 0.00 0.00 42 1018.6
20260503183002 78 36 1.0 9.0 0.00 0.00 0.00 41 1018.6
20260503182013 78 48 1.0 9.0 0.00 0.00 0.00 41 1018.8
20260503181015 77 57 1.0 8.0 0.00 0.00 0.00 43 1018.9
20260503174836 77 38 1.0 9.0 0.00 0.00 0.00 43 1019.6
20260503173815 76 57 1.0 6.0 0.00 0.00 0.00 45 1019.5
20260503172757 77 31 1.0 5.0 0.00 0.00 0.00 44 1019.6
20260503171753 77 325 0.0 9.0 0.00 0.00 0.00 43 1019.7
20260503170816 77 338 0.0 9.0 0.00 0.00 0.00 42 1019.8
20260503150240 71 32 1.0 5.0 0.00 0.01 0.00 54 1020.4
20260503110736 54 290 0.0 0.0 0.00 0.01 0.00 81 1019.2
20260503090402 56 290 0.0 0.0 0.00 0.01 0.00 76 1018.6
20260503072712 56 288 0.0 0.0 0.00 0.01 0.00 76 1018.8
20260503071707 56 288 0.0 0.0 0.00 0.01 0.00 76 1018.9
20260503070712 56 288 0.0 0.0 0.00 0.01 0.00 75 1019.0